Private Wetterstation Wechselburg
Wetterdaten: Freitag, 04.11.2011
Datum Zeit Temp. +2m Bodentemp. Temp.+5cm Temp. Wind Windchill X Diff Temp. Feuchte +2m Feuchte +5cm Sonnenschein Luftdruck Regen Wind Richtung Richtung Sonnenschein UV Taupunkt Windchill Windben
04.11.2011 00:00 4,7 C 13,5 C 4,9 C 4,5 C 4,2 C 0,0 C 86 % 87 % 0 % 1008,9 hPa 0,0 l/m 0,2 km/h (0 Bft) NO 45 0 min 0,0 UV-I 2,6 C 4,2 C 0,0 km/h (0 Bft)
04.11.2011 00:04 4,9 C 13,5 C 4,8 C 4,7 C 4,2 C 0,0 C 86 % 87 % 0 % 1008,9 hPa 0,0 l/m 0,6 km/h (0 Bft) SW 225 0 min 0,0 UV-I 2,8 C 4,2 C 1,6 km/h (1 Bft)
04.11.2011 00:09 4,8 C 13,5 C 4,8 C 4,6 C 4,3 C 0,0 C 86 % 87 % 0 % 1008,9 hPa 0,0 l/m 0,6 km/h (0 Bft) W 270 0 min 0,0 UV-I 2,7 C 4,3 C 0,0 km/h (0 Bft)
04.11.2011 00:14 4,8 C 13,5 C 4,8 C 4,6 C 4,1 C 0,0 C 85 % 87 % 0 % 1008,9 hPa 0,0 l/m 0,0 km/h (0 Bft) N-NW 337 0 min 0,0 UV-I 2,5 C 4,1 C 0,0 km/h (0 Bft)
04.11.2011 00:19 4,8 C 13,5 C 4,8 C 4,6 C 4,1 C 0,0 C 85 % 87 % 0 % 1008,9 hPa 0,0 l/m 0,0 km/h (0 Bft) N-NW 337 0 min 0,0 UV-I 2,5 C 4,1 C 0,0 km/h (0 Bft)
04.11.2011 00:25 4,8 C 13,5 C 4,9 C 4,6 C 4,2 C 0,0 C 85 % 87 % 0 % 1008,5 hPa 0,0 l/m 0,0 km/h (0 Bft) NO 45 0 min 0,0 UV-I 2,5 C 4,2 C 0,0 km/h (0 Bft)
04.11.2011 00:30 4,8 C 13,5 C 4,9 C 4,6 C 4,1 C 0,0 C 85 % 87 % 0 % 1008,5 hPa 0,0 l/m 0,0 km/h (0 Bft) SW 225 0 min 0,0 UV-I 2,5 C 4,1 C 0,0 km/h (0 Bft)
04.11.2011 00:35 4,8 C 13,5 C 4,9 C 4,6 C 4,2 C 0,0 C 86 % 87 % 0 % 1008,5 hPa 0,0 l/m 0,5 km/h (0 Bft) S-SO 157 0 min 0,0 UV-I 2,7 C 4,2 C 0,0 km/h (0 Bft)
04.11.2011 00:40 5,1 C 13,4 C 4,9 C 4,9 C 4,4 C 0,0 C 85 % 87 % 0 % 1008,4 hPa 0,0 l/m 1,1 km/h (1 Bft) W-SW 247 0 min 0,0 UV-I 2,8 C 4,4 C 7,1 km/h (2 Bft)
04.11.2011 00:45 5,1 C 13,4 C 5,2 C 4,9 C 4,6 C 0,0 C 85 % 87 % 0 % 1008,4 hPa 0,0 l/m 1,1 km/h (1 Bft) W 270 0 min 0,0 UV-I 2,8 C 4,6 C 0,0 km/h (0 Bft)
04.11.2011 00:50 5,1 C 13,5 C 5,1 C 4,9 C 4,6 C 0,0 C 85 % 87 % 0 % 1008,4 hPa 0,0 l/m 1,0 km/h (0 Bft) N-NW 337 0 min 0,0 UV-I 2,8 C 4,6 C 7,1 km/h (2 Bft)
04.11.2011 00:55 5,1 C 13,4 C 5,1 C 4,9 C 4,4 C 0,0 C 84 % 86 % 0 % 1008,4 hPa 0,0 l/m 0,6 km/h (0 Bft) NO 45 0 min 0,0 UV-I 2,6 C 4,4 C 2,3 km/h (1 Bft)
04.11.2011 01:00 5,1 C 13,4 C 4,9 C 4,8 C 4,3 C 0,0 C 84 % 86 % 0 % 1008,6 hPa 0,0 l/m 0,3 km/h (0 Bft) W 270 0 min 0,0 UV-I 2,6 C 4,3 C 0,0 km/h (0 Bft)
04.11.2011 01:07 4,9 C 13,4 C 4,9 C 4,6 C 4,1 C 0,0 C 84 % 86 % 0 % 1008,6 hPa 0,0 l/m 0,3 km/h (0 Bft) N 0 0 min 0,0 UV-I 2,4 C 4,1 C 1,6 km/h (1 Bft)
04.11.2011 01:20 5,1 C 13,4 C 4,9 C 4,8 C 4,3 C 0,0 C 85 % 87 % 0 % 1008,5 hPa 0,0 l/m 1,1 km/h (1 Bft) O 90 0 min 0,0 UV-I 2,8 C 4,3 C 4,0 km/h (1 Bft)
04.11.2011 01:25 5,2 C 13,4 C 5,1 C 4,9 C 4,4 C 0,0 C 85 % 87 % 0 % 1008,5 hPa 0,0 l/m 0,6 km/h (0 Bft) NW 315 0 min 0,0 UV-I 2,9 C 4,4 C 0,0 km/h (0 Bft)
04.11.2011 01:30 5,3 C 13,4 C 5,0 C 5,0 C 4,3 C 0,0 C 84 % 87 % 0 % 1008,5 hPa 0,0 l/m 0,5 km/h (0 Bft) O-NO 67 0 min 0,0 UV-I 2,8 C 4,3 C 0,0 km/h (0 Bft)
04.11.2011 01:35 5,2 C 13,4 C 5,0 C 4,9 C 4,2 C 0,0 C 84 % 87 % 0 % 1008,5 hPa 0,0 l/m 0,2 km/h (0 Bft) O-NO 67 0 min 0,0 UV-I 2,7 C 4,2 C 2,3 km/h (1 Bft)
04.11.2011 01:40 5,3 C 13,4 C 4,9 C 4,9 C 4,2 C 0,0 C 84 % 87 % 0 % 1008,6 hPa 0,0 l/m 0,3 km/h (0 Bft) SW 225 0 min 0,0 UV-I 2,8 C 4,2 C 0,0 km/h (0 Bft)
04.11.2011 01:45 5,2 C 13,4 C 4,9 C 4,8 C 4,1 C 0,0 C 84 % 87 % 0 % 1008,6 hPa 0,0 l/m 0,3 km/h (0 Bft) SO 135 0 min 0,0 UV-I 2,7 C 4,1 C 0,0 km/h (0 Bft)
04.11.2011 01:50 5,1 C 13,4 C 4,9 C 4,8 C 4,1 C 0,0 C 84 % 87 % 0 % 1008,6 hPa 0,0 l/m 0,0 km/h (0 Bft) O-NO 67 0 min 0,0 UV-I 2,6 C 4,1 C 0,0 km/h (0 Bft)
04.11.2011 01:55 5,1 C 13,4 C 4,8 C 4,7 C 4,0 C 0,0 C 84 % 87 % 0 % 1008,6 hPa 0,0 l/m 0,0 km/h (0 Bft) O 90 0 min 0,0 UV-I 2,6 C 4,0 C 0,0 km/h (0 Bft)
04.11.2011 02:00 5,0 C 13,4 C 4,8 C 4,7 C 4,0 C 0,0 C 85 % 87 % 0 % 1008,6 hPa 0,0 l/m 0,2 km/h (0 Bft) N-NO 22 0 min 0,0 UV-I 2,7 C 4,0 C 3,2 km/h (1 Bft)
04.11.2011 02:11 5,1 C 13,4 C 5,1 C 4,8 C 4,2 C 0,0 C 85 % 87 % 0 % 1008,6 hPa 0,0 l/m 0,6 km/h (0 Bft) N 0 0 min 0,0 UV-I 2,8 C 4,2 C 0,0 km/h (0 Bft)
04.11.2011 02:20 5,2 C 13,4 C 5,1 C 4,9 C 4,3 C 0,0 C 85 % 87 % 0 % 1008,8 hPa 0,0 l/m 0,5 km/h (0 Bft) N-NW 337 0 min 0,0 UV-I 2,9 C 4,3 C 0,0 km/h (0 Bft)
04.11.2011 02:25 5,2 C 13,3 C 5,0 C 4,9 C 4,3 C 0,0 C 85 % 87 % 0 % 1008,8 hPa 0,0 l/m 0,5 km/h (0 Bft) O-NO 67 0 min 0,0 UV-I 2,9 C 4,3 C 0,0 km/h (0 Bft)
04.11.2011 02:30 5,2 C 13,3 C 5,1 C 4,9 C 4,4 C 0,0 C 85 % 88 % 0 % 1008,8 hPa 0,0 l/m 0,2 km/h (0 Bft) O-NO 67 0 min 0,0 UV-I 2,9 C 4,4 C 0,0 km/h (0 Bft)
04.11.2011 02:35 5,3 C 13,3 C 5,3 C 5,0 C 4,5 C 0,0 C 85 % 88 % 0 % 1008,8 hPa 0,0 l/m 0,6 km/h (0 Bft) O-SO 112 0 min 0,0 UV-I 3,0 C 4,5 C 2,4 km/h (1 Bft)
04.11.2011 02:40 5,5 C 13,3 C 5,5 C 5,2 C 4,7 C 0,0 C 85 % 87 % 0 % 1008,6 hPa 0,0 l/m 1,3 km/h (1 Bft) O-SO 112 0 min 0,0 UV-I 3,2 C 4,7 C 0,0 km/h (0 Bft)
04.11.2011 02:45 5,6 C 13,3 C 5,5 C 5,3 C 4,8 C 0,0 C 85 % 87 % 0 % 1008,6 hPa 0,0 l/m 1,4 km/h (1 Bft) O-NO 67 0 min 0,0 UV-I 3,3 C 4,8 C 2,3 km/h (1 Bft)
04.11.2011 02:50 5,7 C 13,3 C 5,5 C 5,4 C 4,8 C 0,0 C 85 % 87 % 0 % 1008,6 hPa 0,0 l/m 0,8 km/h (0 Bft) O-SO 112 0 min 0,0 UV-I 3,4 C 4,8 C 3,2 km/h (1 Bft)
04.11.2011 02:55 5,6 C 13,3 C 5,4 C 5,4 C 5,0 C 0,0 C 85 % 87 % 0 % 1008,6 hPa 0,0 l/m 0,8 km/h (0 Bft) SW 225 0 min 0,0 UV-I 3,3 C 5,0 C 1,9 km/h (1 Bft)
04.11.2011 03:00 5,6 C 13,3 C 5,5 C 5,4 C 5,1 C 0,0 C 85 % 87 % 0 % 1008,7 hPa 0,0 l/m 1,3 km/h (1 Bft) O 90 0 min 0,0 UV-I 3,3 C 5,1 C 0,0 km/h (0 Bft)
04.11.2011 03:11 5,8 C 13,3 C 5,6 C 5,6 C 5,2 C 0,0 C 84 % 87 % 0 % 1008,7 hPa 0,0 l/m 0,6 km/h (0 Bft) N 0 0 min 0,0 UV-I 3,3 C 5,2 C 0,0 km/h (0 Bft)
04.11.2011 03:20 5,9 C 13,3 C 5,6 C 5,6 C 5,1 C 0,0 C 84 % 87 % 0 % 1009,8 hPa 0,0 l/m 0,6 km/h (0 Bft) NO 45 0 min 0,0 UV-I 3,4 C 5,1 C 1,9 km/h (1 Bft)
04.11.2011 03:25 5,8 C 13,3 C 5,7 C 5,6 C 5,1 C 0,0 C 84 % 87 % 0 % 1009,8 hPa 0,0 l/m 0,5 km/h (0 Bft) O-SO 112 0 min 0,0 UV-I 3,3 C 5,1 C 2,3 km/h (1 Bft)
04.11.2011 03:30 5,9 C 13,3 C 5,7 C 5,6 C 5,1 C 0,0 C 84 % 87 % 0 % 1009,8 hPa 0,0 l/m 0,5 km/h (0 Bft) O-SO 112 0 min 0,0 UV-I 3,4 C 5,1 C 0,0 km/h (0 Bft)
04.11.2011 03:35 5,8 C 13,3 C 5,7 C 5,6 C 5,1 C 0,0 C 84 % 87 % 0 % 1009,8 hPa 0,0 l/m 0,3 km/h (0 Bft) W-SW 247 0 min 0,0 UV-I 3,3 C 5,1 C 0,0 km/h (0 Bft)
04.11.2011 03:40 5,8 C 13,3 C 5,7 C 5,6 C 5,1 C 0,0 C 84 % 87 % 0 % 1009,4 hPa 0,0 l/m 0,6 km/h (0 Bft) NO 45 0 min 0,0 UV-I 3,3 C 5,1 C 0,0 km/h (0 Bft)
04.11.2011 03:45 5,8 C 13,3 C 5,6 C 5,6 C 5,2 C 0,0 C 84 % 87 % 0 % 1009,4 hPa 0,0 l/m 0,6 km/h (0 Bft) O-NO 67 0 min 0,0 UV-I 3,3 C 5,2 C 0,0 km/h (0 Bft)
04.11.2011 03:50 5,9 C 13,3 C 5,6 C 5,7 C 5,3 C 0,0 C 84 % 87 % 0 % 1009,4 hPa 0,0 l/m 0,8 km/h (0 Bft) N-NO 22 0 min 0,0 UV-I 3,4 C 5,3 C 0,0 km/h (0 Bft)
04.11.2011 03:55 5,8 C 13,3 C 5,7 C 5,6 C 5,3 C 0,0 C 84 % 87 % 0 % 1009,4 hPa 0,0 l/m 1,0 km/h (0 Bft) O-NO 67 0 min 0,0 UV-I 3,3 C 5,3 C 2,1 km/h (1 Bft)
04.11.2011 04:00 5,9 C 13,2 C 5,6 C 5,7 C 5,2 C 0,0 C 84 % 87 % 0 % 1009,3 hPa 0,0 l/m 0,8 km/h (0 Bft) O-NO 67 0 min 0,0 UV-I 3,4 C 5,2 C 0,0 km/h (0 Bft)
04.11.2011 04:04 5,9 C 13,2 C 5,6 C 5,7 C 5,3 C 0,0 C 84 % 87 % 0 % 1009,3 hPa 0,0 l/m 0,6 km/h (0 Bft) SO 135 0 min 0,0 UV-I 3,4 C 5,3 C 2,4 km/h (1 Bft)
04.11.2011 04:09 5,9 C 13,2 C 5,7 C 5,7 C 5,2 C 0,0 C 84 % 87 % 0 % 1009,3 hPa 0,0 l/m 0,3 km/h (0 Bft) NO 45 0 min 0,0 UV-I 3,4 C 5,2 C 0,0 km/h (0 Bft)
04.11.2011 04:14 5,8 C 13,2 C 5,7 C 5,6 C 5,1 C 0,0 C 84 % 87 % 0 % 1009,3 hPa 0,0 l/m 0,3 km/h (0 Bft) O-SO 112 0 min 0,0 UV-I 3,3 C 5,1 C 0,0 km/h (0 Bft)
04.11.2011 04:18 5,8 C 13,2 C 5,7 C 5,6 C 5,1 C 0,0 C 84 % 87 % 0 % 1009,3 hPa 0,0 l/m 0,3 km/h (0 Bft) O-SO 112 0 min 0,0 UV-I 3,3 C 5,1 C 0,0 km/h (0 Bft)
04.11.2011 04:25 5,8 C 13,2 C 5,7 C 5,6 C 5,1 C 0,0 C 84 % 87 % 0 % 1009,5 hPa 0,0 l/m 0,3 km/h (0 Bft) O-NO 67 0 min 0,0 UV-I 3,3 C 5,1 C 2,1 km/h (1 Bft)
04.11.2011 04:30 5,8 C 13,2 C 5,6 C 5,6 C 5,1 C 0,0 C 84 % 87 % 0 % 1009,5 hPa 0,0 l/m 0,3 km/h (0 Bft) O-NO 67 0 min 0,0 UV-I 3,3 C 5,1 C 0,0 km/h (0 Bft)
04.11.2011 04:35 5,7 C 13,2 C 5,6 C 5,5 C 5,1 C 0,0 C 84 % 87 % 0 % 1009,5 hPa 0,0 l/m 0,5 km/h (0 Bft) N-NO 22 0 min 0,0 UV-I 3,2 C 5,1 C 0,0 km/h (0 Bft)
04.11.2011 04:40 5,7 C 13,2 C 5,6 C 5,5 C 5,1 C 0,0 C 84 % 87 % 0 % 1009,8 hPa 0,0 l/m 0,3 km/h (0 Bft) O 90 0 min 0,0 UV-I 3,2 C 5,1 C 0,0 km/h (0 Bft)
04.11.2011 04:45 5,7 C 13,2 C 5,6 C 5,5 C 5,0 C 0,0 C 84 % 87 % 0 % 1009,8 hPa 0,0 l/m 0,3 km/h (0 Bft) O-SO 112 0 min 0,0 UV-I 3,2 C 5,0 C 2,3 km/h (1 Bft)
04.11.2011 04:50 5,7 C 13,2 C 5,7 C 5,5 C 5,1 C 0,0 C 84 % 87 % 0 % 1009,8 hPa 0,0 l/m 0,3 km/h (0 Bft) O-NO 67 0 min 0,0 UV-I 3,2 C 5,1 C 0,0 km/h (0 Bft)
04.11.2011 04:55 5,7 C 13,2 C 5,7 C 5,5 C 5,0 C 0,0 C 84 % 87 % 0 % 1009,8 hPa 0,0 l/m 0,3 km/h (0 Bft) O-NO 67 0 min 0,0 UV-I 3,2 C 5,0 C 3,2 km/h (1 Bft)
04.11.2011 05:00 5,7 C 13,2 C 5,6 C 5,5 C 5,1 C 0,0 C 85 % 87 % 0 % 1009,2 hPa 0,0 l/m 0,6 km/h (0 Bft) NW 315 0 min 0,0 UV-I 3,4 C 5,1 C 1,9 km/h (1 Bft)
04.11.2011 05:10 5,9 C 13,2 C 5,7 C 5,7 C 5,3 C 0,0 C 84 % 87 % 0 % 1009,2 hPa 0,0 l/m 0,5 km/h (0 Bft) N 0 0 min 0,0 UV-I 3,4 C 5,3 C 0,0 km/h (0 Bft)
04.11.2011 05:20 5,7 C 13,2 C 5,5 C 5,5 C 5,1 C 0,0 C 84 % 87 % 0 % 1009,2 hPa 0,0 l/m 0,2 km/h (0 Bft) S 180 0 min 0,0 UV-I 3,2 C 5,1 C 0,0 km/h (0 Bft)
04.11.2011 05:25 5,7 C 13,2 C 5,5 C 5,5 C 5,2 C 0,0 C 84 % 87 % 0 % 1009,2 hPa 0,0 l/m 0,0 km/h (0 Bft) SO 135 0 min 0,0 UV-I 3,2 C 5,2 C 0,0 km/h (0 Bft)
04.11.2011 05:30 5,7 C 13,2 C 5,6 C 5,5 C 5,1 C 0,0 C 84 % 87 % 0 % 1009,2 hPa 0,0 l/m 0,0 km/h (0 Bft) O-SO 112 0 min 0,0 UV-I 3,2 C 5,1 C 0,0 km/h (0 Bft)
04.11.2011 05:35 5,7 C 13,2 C 5,5 C 5,5 C 5,0 C 0,0 C 84 % 87 % 0 % 1009,2 hPa 0,0 l/m 0,2 km/h (0 Bft) W-SW 247 0 min 0,0 UV-I 3,2 C 5,0 C 0,0 km/h (0 Bft)
04.11.2011 05:40 5,7 C 13,2 C 5,5 C 5,5 C 5,1 C 0,0 C 85 % 87 % 0 % 1009,0 hPa 0,0 l/m 0,2 km/h (0 Bft) O-NO 67 0 min 0,0 UV-I 3,4 C 5,1 C 0,0 km/h (0 Bft)
04.11.2011 05:45 5,7 C 13,2 C 5,4 C 5,5 C 5,1 C 0,0 C 84 % 87 % 0 % 1009,0 hPa 0,0 l/m 0,0 km/h (0 Bft) S 180 0 min 0,0 UV-I 3,2 C 5,1 C 0,0 km/h (0 Bft)
04.11.2011 05:50 5,7 C 13,2 C 5,5 C 5,5 C 5,2 C 0,0 C 84 % 87 % 0 % 1009,0 hPa 0,0 l/m 0,3 km/h (0 Bft) NO 45 0 min 0,0 UV-I 3,2 C 5,2 C 0,0 km/h (0 Bft)
04.11.2011 05:55 5,7 C 13,2 C 5,6 C 5,5 C 5,2 C 0,0 C 85 % 88 % 0 % 1009,0 hPa 0,0 l/m 1,1 km/h (1 Bft) W-SW 247 0 min 0,0 UV-I 3,4 C 5,2 C 1,9 km/h (1 Bft)
04.11.2011 06:00 5,8 C 13,2 C 5,6 C 5,6 C 5,2 C 0,0 C 84 % 88 % 0 % 1009,1 hPa 0,0 l/m 1,1 km/h (1 Bft) O-NO 67 0 min 0,0 UV-I 3,3 C 5,2 C 1,8 km/h (1 Bft)
04.11.2011 06:12 5,8 C 13,2 C 5,6 C 5,6 C 5,2 C 0,0 C 84 % 87 % 0 % 1009,1 hPa 0,0 l/m 0,3 km/h (0 Bft) N 0 0 min 0,0 UV-I 3,3 C 5,2 C 0,0 km/h (0 Bft)
04.11.2011 06:20 5,8 C 13,2 C 5,6 C 5,6 C 5,2 C 0,0 C 84 % 87 % 0 % 1009,1 hPa 0,0 l/m 0,3 km/h (0 Bft) N-NW 337 0 min 0,0 UV-I 3,3 C 5,2 C 0,0 km/h (0 Bft)
04.11.2011 06:25 5,8 C 13,2 C 5,7 C 5,6 C 5,1 C 0,0 C 84 % 87 % 0 % 1009,1 hPa 0,0 l/m 0,6 km/h (0 Bft) O-SO 112 0 min 0,0 UV-I 3,3 C 5,1 C 1,8 km/h (1 Bft)
04.11.2011 06:30 5,9 C 13,1 C 5,8 C 5,6 C 5,1 C 0,0 C 84 % 87 % 0 % 1009,1 hPa 0,0 l/m 0,5 km/h (0 Bft) O-SO 112 0 min 0,0 UV-I 3,4 C 5,1 C 1,8 km/h (1 Bft)
04.11.2011 06:35 5,9 C 13,2 C 5,7 C 5,6 C 5,0 C 0,0 C 84 % 87 % 0 % 1009,1 hPa 0,0 l/m 0,2 km/h (0 Bft) O 90 0 min 0,0 UV-I 3,4 C 5,0 C 0,0 km/h (0 Bft)
04.11.2011 06:40 5,9 C 13,2 C 5,6 C 5,5 C 4,7 C 0,0 C 84 % 87 % 0 % 1008,9 hPa 0,0 l/m 0,0 km/h (0 Bft) W 270 0 min 0,0 UV-I 3,4 C 4,7 C 0,0 km/h (0 Bft)
04.11.2011 06:45 5,7 C 13,2 C 5,4 C 5,3 C 4,6 C 0,0 C 84 % 87 % 0 % 1008,9 hPa 0,0 l/m 0,5 km/h (0 Bft) O-NO 67 0 min 0,0 UV-I 3,2 C 4,6 C 0,0 km/h (0 Bft)
04.11.2011 06:50 5,6 C 13,2 C 5,2 C 5,2 C 4,5 C 0,0 C 84 % 86 % 0 % 1008,9 hPa 0,0 l/m 0,5 km/h (0 Bft) O-NO 67 0 min 0,0 UV-I 3,1 C 4,5 C 0,0 km/h (0 Bft)
04.11.2011 06:55 5,5 C 13,2 C 5,1 C 5,1 C 4,2 C 0,0 C 84 % 86 % 0 % 1008,9 hPa 0,0 l/m 0,0 km/h (0 Bft) O 90 0 min 0,0 UV-I 3,0 C 4,2 C 0,0 km/h (0 Bft)
04.11.2011 07:00 5,3 C 13,2 C 5,1 C 4,9 C 4,0 C 0,0 C 84 % 86 % 0 % 1008,6 hPa 0,0 l/m 0,0 km/h (0 Bft) S-SO 157 0 min 0,0 UV-I 2,8 C 4,0 C 0,0 km/h (0 Bft)
04.11.2011 07:12 5,0 C 13,2 C 4,8 C 4,5 C 3,6 C 0,0 C 84 % 87 % 0 % 1008,6 hPa 0,0 l/m 0,0 km/h (0 Bft) N 0 0 min 0,0 UV-I 2,5 C 3,6 C 0,0 km/h (0 Bft)
04.11.2011 07:20 4,7 C 13,3 C 4,5 C 4,2 C 3,3 C 0,0 C 85 % 87 % 0 % 1008,8 hPa 0,0 l/m 0,3 km/h (0 Bft) O-NO 67 0 min 0,0 UV-I 2,4 C 3,3 C 1,8 km/h (1 Bft)
04.11.2011 07:25 4,4 C 13,3 C 4,5 C 4,0 C 3,3 C 0,0 C 85 % 88 % 0 % 1008,8 hPa 0,0 l/m 0,2 km/h (0 Bft) O-NO 67 0 min 0,0 UV-I 2,1 C 3,3 C 0,0 km/h (0 Bft)
04.11.2011 07:30 4,4 C 13,3 C 4,4 C 4,0 C 3,3 C 0,0 C 85 % 88 % 0 % 1008,8 hPa 0,0 l/m 0,5 km/h (0 Bft) SW 225 0 min 0,0 UV-I 2,1 C 3,3 C 2,7 km/h (1 Bft)
04.11.2011 07:35 4,3 C 13,2 C 4,4 C 4,0 C 3,3 C 0,0 C 86 % 88 % 0 % 1008,8 hPa 0,0 l/m 0,3 km/h (0 Bft) S-SW 202 0 min 0,0 UV-I 2,2 C 3,3 C 0,0 km/h (0 Bft)
04.11.2011 07:40 4,3 C 13,3 C 4,3 C 3,9 C 3,2 C 0,0 C 86 % 88 % 0 % 1008,9 hPa 0,0 l/m 0,3 km/h (0 Bft) SW 225 0 min 0,0 UV-I 2,2 C 3,2 C 0,0 km/h (0 Bft)
04.11.2011 07:45 4,0 C 13,3 C 4,3 C 3,7 C 3,1 C 0,0 C 86 % 88 % 0 % 1008,9 hPa 0,0 l/m 0,0 km/h (0 Bft) S-SW 202 0 min 0,0 UV-I 1,9 C 3,1 C 0,0 km/h (0 Bft)
04.11.2011 07:50 4,0 C 13,3 C 4,2 C 3,7 C 3,1 C 0,0 C 86 % 88 % 0 % 1008,9 hPa 0,0 l/m 0,0 km/h (0 Bft) SW 225 0 min 0,0 UV-I 1,9 C 3,1 C 0,0 km/h (0 Bft)
04.11.2011 07:55 3,9 C 13,3 C 4,3 C 3,6 C 3,1 C 0,0 C 87 % 88 % 0 % 1008,9 hPa 0,0 l/m 0,0 km/h (0 Bft) O-NO 67 0 min 0,0 UV-I 1,9 C 3,1 C 1,6 km/h (1 Bft)
04.11.2011 08:00 3,9 C 13,3 C 4,2 C 3,7 C 3,4 C 0,0 C 87 % 88 % 0 % 1009,3 hPa 0,0 l/m 0,2 km/h (0 Bft) NO 45 0 min 0,0 UV-I 1,9 C 3,4 C 0,0 km/h (0 Bft)
04.11.2011 08:12 4,2 C 13,3 C 4,5 C 4,2 C 4,2 C 0,0 C 89 % 89 % 0 % 1009,3 hPa 0,0 l/m 1,3 km/h (1 Bft) N 0 0 min 0,0 UV-I 2,6 C 4,2 C 4,2 km/h (1 Bft)
04.11.2011 08:20 5,2 C 13,2 C 5,1 C 5,4 C 5,4 C 0,2 C 89 % 89 % 5 % 1009,0 hPa 0,0 l/m 1,4 km/h (1 Bft) N-NO 22 0 min 0,0 UV-I 3,5 C 5,4 C 0,0 km/h (0 Bft)
04.11.2011 08:25 5,3 C 13,2 C 5,2 C 5,7 C 5,7 C 0,4 C 88 % 89 % 11 % 1009,0 hPa 0,0 l/m 0,3 km/h (0 Bft) SW 225 0 min 0,0 UV-I 3,5 C 5,7 C 2,7 km/h (1 Bft)
04.11.2011 08:30 5,2 C 13,1 C 5,1 C 5,8 C 5,8 C 0,6 C 87 % 89 % 16 % 1009,0 hPa 0,0 l/m 0,5 km/h (0 Bft) SW 225 0 min 0,0 UV-I 3,2 C 5,8 C 0,0 km/h (0 Bft)
04.11.2011 08:35 5,2 C 13,2 C 5,1 C 5,8 C 5,8 C 0,6 C 86 % 89 % 16 % 1009,0 hPa 0,0 l/m 0,5 km/h (0 Bft) W-SW 247 0 min 0,0 UV-I 3,1 C 5,8 C 0,0 km/h (0 Bft)
04.11.2011 08:40 5,2 C 13,2 C 5,1 C 5,8 C 5,8 C 0,6 C 86 % 89 % 16 % 1009,0 hPa 0,0 l/m 0,0 km/h (0 Bft) W-SW 247 0 min 0,0 UV-I 3,1 C 5,8 C 0,0 km/h (0 Bft)
04.11.2011 08:45 5,2 C 13,2 C 5,2 C 6,0 C 6,0 C 0,8 C 86 % 89 % 21 % 1009,0 hPa 0,0 l/m 0,6 km/h (0 Bft) W-SW 247 0 min 0,0 UV-I 3,1 C 6,0 C 2,1 km/h (1 Bft)
04.11.2011 08:50 5,1 C 13,2 C 5,2 C 5,9 C 5,9 C 0,8 C 86 % 89 % 21 % 1009,0 hPa 0,0 l/m 0,8 km/h (0 Bft) W-SW 247 0 min 0,0 UV-I 3,0 C 5,9 C 0,0 km/h (0 Bft)
04.11.2011 08:55 5,2 C 13,2 C 5,3 C 6,0 C 6,0 C 0,8 C 86 % 89 % 21 % 1009,0 hPa 0,0 l/m 0,5 km/h (0 Bft) N-NW 337 0 min 0,0 UV-I 3,1 C 6,0 C 1,6 km/h (1 Bft)
04.11.2011 09:00 5,4 C 13,1 C 5,5 C 6,3 C 6,3 C 0,9 C 87 % 89 % 24 % 1009,0 hPa 0,0 l/m 0,2 km/h (0 Bft) O-NO 67 0 min 0,0 UV-I 3,4 C 6,3 C 0,0 km/h (0 Bft)
04.11.2011 09:15 7,0 C 13,0 C 6,9 C 8,3 C 8,3 C 1,3 C 86 % 89 % 34 % 1009,0 hPa 0,0 l/m 1,9 km/h (1 Bft) O 90 0 min 0,0 UV-I 4,8 C 8,3 C 0,0 km/h (0 Bft)
04.11.2011 09:16 7,0 C 13,0 C 6,9 C 8,3 C 8,3 C 1,3 C 86 % 89 % 34 % 1009,0 hPa 0,0 l/m 1,9 km/h (1 Bft) O 90 0 min 0,0 UV-I 4,8 C 8,3 C 0,0 km/h (0 Bft)
04.11.2011 09:20 7,2 C 13,0 C 7,1 C 8,6 C 8,6 C 1,4 C 86 % 89 % 37 % 1009,2 hPa 0,0 l/m 0,8 km/h (0 Bft) W-SW 247 0 min 0,0 UV-I 5,0 C 8,6 C 0,0 km/h (0 Bft)
04.11.2011 09:25 7,5 C 13,0 C 7,3 C 9,1 C 9,1 C 1,6 C 85 % 89 % 42 % 1009,2 hPa 0,0 l/m 0,5 km/h (0 Bft) N-NO 22 0 min 0,0 UV-I 5,1 C 9,1 C 0,0 km/h (0 Bft)
04.11.2011 09:30 7,8 C 13,0 C 7,6 C 9,4 C 9,4 C 1,6 C 85 % 89 % 42 % 1009,2 hPa 0,0 l/m 0,8 km/h (0 Bft) S 180 0 min 0,0 UV-I 5,4 C 9,4 C 0,0 km/h (0 Bft)
04.11.2011 09:35 8,0 C 13,0 C 8,0 C 9,8 C 9,8 C 1,8 C 84 % 88 % 47 % 1009,2 hPa 0,0 l/m 0,8 km/h (0 Bft) S 180 0 min 0,0 UV-I 5,5 C 9,8 C 2,3 km/h (1 Bft)
04.11.2011 09:40 8,3 C 13,0 C 8,1 C 10,0 C 10,0 C 1,7 C 84 % 88 % 45 % 1009,5 hPa 0,0 l/m 0,6 km/h (0 Bft) SW 225 0 min 0,0 UV-I 5,8 C 10,0 C 1,6 km/h (1 Bft)
04.11.2011 09:45 8,4 C 13,0 C 8,4 C 10,4 C 10,4 C 2,0 C 83 % 87 % 53 % 1009,5 hPa 0,0 l/m 0,6 km/h (0 Bft) NO 45 0 min 0,0 UV-I 5,7 C 10,4 C 2,1 km/h (1 Bft)
04.11.2011 09:50 8,7 C 13,0 C 8,7 C 10,7 C 10,7 C 2,0 C 83 % 87 % 53 % 1009,5 hPa 0,0 l/m 0,5 km/h (0 Bft) SO 135 0 min 0,0 UV-I 6,0 C 10,7 C 0,0 km/h (0 Bft)
04.11.2011 09:55 9,1 C 13,0 C 9,1 C 11,2 C 11,2 C 2,1 C 81 % 86 % 55 % 1009,5 hPa 0,0 l/m 0,8 km/h (0 Bft) O 90 0 min 0,0 UV-I 6,0 C 11,2 C 1,6 km/h (1 Bft)
04.11.2011 10:00 9,3 C 13,0 C 9,3 C 11,3 C 11,3 C 2,0 C 81 % 85 % 53 % 1009,5 hPa 0,0 l/m 0,8 km/h (0 Bft) SW 225 0 min 0,0 UV-I 6,2 C 11,3 C 1,9 km/h (1 Bft)
04.11.2011 10:04 9,5 C 13,0 C 9,5 C 11,4 C 11,4 C 1,9 C 79 % 85 % 50 % 1009,5 hPa 0,0 l/m 2,1 km/h (1 Bft) W-SW 247 0 min 0,0 UV-I 6,0 C 11,4 C 3,2 km/h (1 Bft)
04.11.2011 10:09 9,7 C 13,0 C 9,5 C 11,4 C 11,4 C 1,7 C 78 % 84 % 45 % 1009,5 hPa 0,0 l/m 2,7 km/h (1 Bft) SW 225 0 min 0,0 UV-I 6,1 C 11,4 C 2,3 km/h (1 Bft)
04.11.2011 10:14 9,9 C 13,0 C 9,7 C 11,5 C 11,5 C 1,6 C 78 % 83 % 42 % 1009,5 hPa 0,0 l/m 2,3 km/h (1 Bft) W-SW 247 0 min 0,0 UV-I 6,2 C 11,5 C 4,5 km/h (1 Bft)
04.11.2011 10:18 9,9 C 13,0 C 9,7 C 11,5 C 11,5 C 1,6 C 78 % 83 % 42 % 1009,5 hPa 0,0 l/m 2,3 km/h (1 Bft) W-SW 247 0 min 0,0 UV-I 6,2 C 11,5 C 4,5 km/h (1 Bft)
04.11.2011 10:25 10,1 C 13,0 C 9,9 C 11,5 C 11,5 C 1,4 C 78 % 82 % 37 % 1009,7 hPa 0,0 l/m 4,0 km/h (1 Bft) W-SW 247 0 min 0,0 UV-I 6,4 C 11,5 C 7,6 km/h (2 Bft)
04.11.2011 10:30 10,0 C 13,0 C 9,8 C 11,3 C 11,3 C 1,3 C 77 % 81 % 34 % 1009,7 hPa 0,0 l/m 5,0 km/h (1 Bft) W-SW 247 0 min 0,0 UV-I 6,2 C 11,3 C 10,9 km/h (2 Bft)
04.11.2011 10:35 9,6 C 13,0 C 9,5 C 10,4 C 10,4 C 0,8 C 78 % 82 % 21 % 1009,7 hPa 0,0 l/m 5,6 km/h (1 Bft) S-SW 202 0 min 0,0 UV-I 6,0 C 10,4 C 1,8 km/h (1 Bft)
04.11.2011 10:40 9,5 C 13,0 C 9,5 C 10,7 C 10,7 C 1,2 C 77 % 81 % 32 % 1010,2 hPa 0,0 l/m 4,5 km/h (1 Bft) S-SW 202 0 min 0,0 UV-I 5,7 C 10,7 C 6,1 km/h (2 Bft)
04.11.2011 10:45 9,5 C 13,0 C 9,5 C 10,7 C 10,7 C 1,2 C 77 % 80 % 32 % 1010,2 hPa 0,0 l/m 1,4 km/h (1 Bft) S 180 0 min 0,0 UV-I 5,7 C 10,7 C 1,6 km/h (1 Bft)
04.11.2011 10:50 9,5 C 13,0 C 9,5 C 10,8 C 10,8 C 1,3 C 77 % 80 % 34 % 1010,2 hPa 0,0 l/m 0,8 km/h (0 Bft) SO 135 0 min 0,0 UV-I 5,7 C 10,8 C 0,0 km/h (0 Bft)
04.11.2011 10:55 9,5 C 13,0 C 9,5 C 11,1 C 11,1 C 1,6 C 76 % 80 % 42 % 1010,2 hPa 0,0 l/m 0,5 km/h (0 Bft) S-SW 202 0 min 0,0 UV-I 5,5 C 11,1 C 1,6 km/h (1 Bft)
04.11.2011 11:00 9,5 C 13,0 C 9,5 C 11,2 C 11,2 C 1,7 C 75 % 80 % 45 % 1010,0 hPa 0,0 l/m 1,8 km/h (1 Bft) W-SW 247 0 min 0,0 UV-I 5,3 C 11,2 C 3,9 km/h (1 Bft)
04.11.2011 11:04 9,5 C 13,0 C 9,5 C 11,3 C 11,3 C 1,8 C 76 % 80 % 47 % 1010,0 hPa 0,0 l/m 1,6 km/h (1 Bft) S 180 0 min 0,0 UV-I 5,5 C 11,3 C 3,4 km/h (1 Bft)
04.11.2011 11:09 9,5 C 13,0 C 9,4 C 11,2 C 11,2 C 1,7 C 76 % 80 % 45 % 1010,0 hPa 0,0 l/m 0,6 km/h (0 Bft) W-SW 247 0 min 0,0 UV-I 5,5 C 11,2 C 2,6 km/h (1 Bft)
04.11.2011 11:14 9,4 C 13,0 C 9,5 C 10,9 C 10,9 C 1,5 C 75 % 80 % 39 % 1010,0 hPa 0,0 l/m 1,3 km/h (1 Bft) W-SW 247 0 min 0,0 UV-I 5,2 C 10,9 C 3,7 km/h (1 Bft)
04.11.2011 11:18 9,4 C 13,0 C 9,5 C 10,9 C 10,9 C 1,5 C 75 % 80 % 39 % 1010,0 hPa 0,0 l/m 1,3 km/h (1 Bft) W-SW 247 0 min 0,0 UV-I 5,2 C 10,9 C 3,7 km/h (1 Bft)
04.11.2011 11:25 9,5 C 13,0 C 9,5 C 10,8 C 10,8 C 1,3 C 75 % 80 % 34 % 1010,1 hPa 0,0 l/m 3,1 km/h (1 Bft) W-SW 247 0 min 0,0 UV-I 5,3 C 10,8 C 3,4 km/h (1 Bft)
04.11.2011 11:30 9,4 C 13,0 C 9,5 C 10,8 C 10,8 C 1,4 C 75 % 80 % 37 % 1010,1 hPa 0,0 l/m 3,2 km/h (1 Bft) W-SW 247 0 min 0,0 UV-I 5,2 C 10,8 C 4,8 km/h (1 Bft)
04.11.2011 11:35 9,5 C 13,1 C 9,6 C 10,8 C 10,8 C 1,3 C 75 % 80 % 34 % 1010,1 hPa 0,0 l/m 2,7 km/h (1 Bft) S-SW 202 0 min 0,0 UV-I 5,3 C 10,8 C 2,7 km/h (1 Bft)
04.11.2011 11:40 9,5 C 13,1 C 9,6 C 10,9 C 10,9 C 1,4 C 76 % 80 % 37 % 1009,8 hPa 0,0 l/m 1,8 km/h (1 Bft) SW 225 0 min 0,0 UV-I 5,5 C 10,9 C 2,1 km/h (1 Bft)
04.11.2011 11:45 9,7 C 13,1 C 9,8 C 11,2 C 11,2 C 1,5 C 76 % 79 % 39 % 1009,8 hPa 0,0 l/m 0,5 km/h (0 Bft) W 270 0 min 0,0 UV-I 5,7 C 11,2 C 0,0 km/h (0 Bft)
04.11.2011 11:50 9,7 C 13,0 C 9,9 C 11,4 C 11,4 C 1,7 C 75 % 79 % 45 % 1009,8 hPa 0,0 l/m 0,5 km/h (0 Bft) W 270 0 min 0,0 UV-I 5,5 C 11,4 C 0,0 km/h (0 Bft)
04.11.2011 11:55 9,9 C 13,0 C 9,9 C 11,7 C 11,7 C 1,8 C 75 % 79 % 47 % 1009,8 hPa 0,0 l/m 0,2 km/h (0 Bft) SW 225 0 min 0,0 UV-I 5,7 C 11,7 C 1,9 km/h (1 Bft)
04.11.2011 12:00 10,0 C 13,0 C 10,0 C 11,8 C 11,8 C 1,8 C 75 % 79 % 47 % 1009,6 hPa 0,0 l/m 0,3 km/h (0 Bft) SW 225 0 min 0,0 UV-I 5,8 C 11,8 C 0,0 km/h (0 Bft)
04.11.2011 12:12 10,3 C 13,0 C 10,2 C 12,4 C 12,4 C 2,1 C 74 % 78 % 55 % 1009,6 hPa 0,0 l/m 0,8 km/h (0 Bft) N 0 0 min 0,0 UV-I 5,9 C 12,4 C 3,7 km/h (1 Bft)
04.11.2011 12:20 10,2 C 13,0 C 10,7 C 13,1 C 13,1 C 2,9 C 75 % 77 % 76 % 1009,4 hPa 0,0 l/m 1,3 km/h (1 Bft) NW 315 0 min 0,0 UV-I 6,0 C 13,1 C 0,0 km/h (0 Bft)
04.11.2011 12:25 10,5 C 13,1 C 10,7 C 13,7 C 13,7 C 3,2 C 75 % 78 % 84 % 1009,4 hPa 0,0 l/m 0,8 km/h (0 Bft) W-SW 247 0 min 0,0 UV-I 6,3 C 13,7 C 3,5 km/h (1 Bft)
04.11.2011 12:30 10,6 C 13,1 C 10,8 C 13,5 C 13,5 C 2,9 C 75 % 77 % 76 % 1009,4 hPa 0,0 l/m 2,3 km/h (1 Bft) W-SW 247 0 min 0,0 UV-I 6,4 C 13,5 C 6,0 km/h (2 Bft)
04.11.2011 12:35 10,7 C 13,1 C 10,7 C 12,8 C 12,8 C 2,1 C 75 % 77 % 55 % 1009,4 hPa 0,0 l/m 3,4 km/h (1 Bft) S 180 0 min 0,0 UV-I 6,5 C 12,8 C 0,0 km/h (0 Bft)
04.11.2011 12:40 10,8 C 13,1 C 10,7 C 12,5 C 12,5 C 1,7 C 75 % 78 % 45 % 1010,1 hPa 0,0 l/m 2,1 km/h (1 Bft) W-SW 247 0 min 0,0 UV-I 6,5 C 12,5 C 1,6 km/h (1 Bft)
04.11.2011 12:45 10,7 C 13,1 C 10,7 C 12,2 C 12,2 C 1,5 C 74 % 78 % 39 % 1010,1 hPa 0,0 l/m 1,4 km/h (1 Bft) W-SW 247 0 min 0,0 UV-I 6,3 C 12,2 C 0,0 km/h (0 Bft)
04.11.2011 12:50 10,9 C 13,1 C 10,7 C 12,0 C 12,0 C 1,1 C 75 % 78 % 29 % 1010,1 hPa 0,0 l/m 2,1 km/h (1 Bft) S-SW 202 0 min 0,0 UV-I 6,6 C 12,0 C 1,6 km/h (1 Bft)
04.11.2011 12:55 10,8 C 13,1 C 10,9 C 12,0 C 12,0 C 1,2 C 75 % 79 % 32 % 1010,1 hPa 0,0 l/m 1,4 km/h (1 Bft) W-SW 247 0 min 0,0 UV-I 6,5 C 12,0 C 2,3 km/h (1 Bft)
04.11.2011 13:00 11,1 C 13,1 C 10,9 C 12,1 C 12,1 C 1,0 C 75 % 78 % 26 % 1010,4 hPa 0,0 l/m 1,0 km/h (0 Bft) W-SW 247 0 min 0,0 UV-I 6,8 C 12,1 C 0,0 km/h (0 Bft)
04.11.2011 13:14 11,3 C 13,1 C 11,5 C 14,2 C 14,2 C 2,9 C 74 % 78 % 76 % 1010,4 hPa 0,0 l/m 0,6 km/h (0 Bft) S 180 0 min 0,0 UV-I 6,8 C 14,2 C 2,4 km/h (1 Bft)
04.11.2011 13:16 11,3 C 13,1 C 11,5 C 14,2 C 14,2 C 2,9 C 74 % 78 % 76 % 1010,4 hPa 0,0 l/m 0,6 km/h (0 Bft) S 180 0 min 0,0 UV-I 6,8 C 14,2 C 2,4 km/h (1 Bft)
04.11.2011 13:20 11,5 C 13,1 C 11,7 C 14,5 C 14,5 C 3,0 C 74 % 78 % 79 % 1010,0 hPa 0,0 l/m 1,0 km/h (0 Bft) SW 225 0 min 0,0 UV-I 7,0 C 14,5 C 1,8 km/h (1 Bft)
04.11.2011 13:25 11,6 C 13,1 C 11,8 C 14,6 C 14,6 C 3,0 C 74 % 77 % 79 % 1010,0 hPa 0,0 l/m 1,1 km/h (1 Bft) SW 225 0 min 0,0 UV-I 7,1 C 14,6 C 1,6 km/h (1 Bft)
04.11.2011 13:30 11,8 C 13,2 C 11,8 C 14,6 C 14,6 C 2,8 C 74 % 76 % 74 % 1010,0 hPa 0,0 l/m 0,6 km/h (0 Bft) W-SW 247 0 min 0,0 UV-I 7,3 C 14,6 C 2,3 km/h (1 Bft)
04.11.2011 13:35 11,9 C 13,2 C 12,0 C 14,4 C 14,4 C 2,5 C 73 % 76 % 66 % 1010,0 hPa 0,0 l/m 1,8 km/h (1 Bft) SW 225 0 min 0,0 UV-I 7,2 C 14,4 C 2,3 km/h (1 Bft)
04.11.2011 13:40 11,8 C 13,2 C 11,9 C 14,3 C 14,3 C 2,5 C 73 % 76 % 66 % 1009,9 hPa 0,0 l/m 1,8 km/h (1 Bft) SW 225 0 min 0,0 UV-I 7,1 C 14,3 C 0,0 km/h (0 Bft)
04.11.2011 13:45 12,0 C 13,2 C 12,0 C 14,4 C 14,4 C 2,4 C 73 % 77 % 63 % 1009,9 hPa 0,0 l/m 1,1 km/h (1 Bft) S-SW 202 0 min 0,0 UV-I 7,3 C 14,4 C 2,7 km/h (1 Bft)
04.11.2011 13:50 12,1 C 13,2 C 12,3 C 14,6 C 14,6 C 2,5 C 73 % 76 % 66 % 1009,9 hPa 0,0 l/m 1,4 km/h (1 Bft) SW 225 0 min 0,0 UV-I 7,4 C 14,6 C 1,8 km/h (1 Bft)
04.11.2011 13:55 12,1 C 13,2 C 12,5 C 15,6 C 15,6 C 3,5 C 72 % 75 % 92 % 1009,9 hPa 0,0 l/m 0,8 km/h (0 Bft) W 270 5 min 0,0 UV-I 7,2 C 15,6 C 1,9 km/h (1 Bft)
04.11.2011 14:00 12,2 C 13,2 C 13,1 C 16,0 C 16,0 C 3,8 C 72 % 74 % 100 % 1009,7 hPa 0,0 l/m 0,3 km/h (0 Bft) W-SW 247 5 min 0,0 UV-I 7,3 C 16,0 C 1,8 km/h (1 Bft)
04.11.2011 14:15 12,5 C 13,3 C 14,8 C 15,8 C 15,8 C 3,3 C 71 % 70 % 87 % 1009,7 hPa 0,0 l/m 3,7 km/h (1 Bft) W-SW 247 15 min 0,0 UV-I 7,4 C 15,8 C 3,9 km/h (1 Bft)
04.11.2011 14:16 12,5 C 13,3 C 14,8 C 15,8 C 15,8 C 3,3 C 71 % 70 % 87 % 1009,7 hPa 0,0 l/m 3,7 km/h (1 Bft) W-SW 247 1 min 0,0 UV-I 7,4 C 15,8 C 3,9 km/h (1 Bft)
04.11.2011 14:20 12,4 C 13,3 C 14,6 C 15,8 C 15,8 C 3,4 C 72 % 69 % 89 % 1009,9 hPa 0,0 l/m 3,1 km/h (1 Bft) W-SW 247 4 min 0,0 UV-I 7,5 C 15,8 C 0,0 km/h (0 Bft)
04.11.2011 14:25 12,7 C 13,3 C 14,1 C 15,3 C 15,3 C 2,6 C 72 % 70 % 68 % 1009,9 hPa 0,0 l/m 1,1 km/h (1 Bft) S 180 0 min 0,0 UV-I 7,8 C 15,3 C 2,6 km/h (1 Bft)
04.11.2011 14:30 12,6 C 13,3 C 13,9 C 15,0 C 15,0 C 2,4 C 71 % 70 % 63 % 1009,9 hPa 0,0 l/m 0,5 km/h (0 Bft) S 180 0 min 0,0 UV-I 7,5 C 15,0 C 0,0 km/h (0 Bft)
04.11.2011 14:35 12,7 C 13,3 C 13,8 C 14,9 C 14,9 C 2,2 C 72 % 71 % 58 % 1009,9 hPa 0,0 l/m 0,6 km/h (0 Bft) SO 135 0 min 0,0 UV-I 7,8 C 14,9 C 1,6 km/h (1 Bft)
04.11.2011 14:40 12,7 C 13,3 C 13,6 C 14,8 C 14,8 C 2,1 C 71 % 71 % 55 % 1009,8 hPa 0,0 l/m 0,2 km/h (0 Bft) SO 135 0 min 0,0 UV-I 7,6 C 14,8 C 0,0 km/h (0 Bft)
04.11.2011 14:45 12,8 C 13,3 C 13,5 C 14,9 C 14,9 C 2,1 C 71 % 72 % 55 % 1009,8 hPa 0,0 l/m 0,0 km/h (0 Bft) S-SW 202 0 min 0,0 UV-I 7,7 C 14,9 C 2,9 km/h (1 Bft)
04.11.2011 14:50 12,9 C 13,3 C 13,3 C 14,9 C 14,9 C 2,0 C 71 % 73 % 53 % 1009,8 hPa 0,0 l/m 0,8 km/h (0 Bft) W-SW 247 0 min 0,0 UV-I 7,8 C 14,9 C 3,5 km/h (1 Bft)
04.11.2011 14:55 12,9 C 13,3 C 13,2 C 14,9 C 14,9 C 2,0 C 71 % 72 % 53 % 1009,8 hPa 0,0 l/m 1,0 km/h (0 Bft) O-NO 67 0 min 0,0 UV-I 7,8 C 14,9 C 0,0 km/h (0 Bft)
04.11.2011 15:00 12,8 C 13,3 C 13,1 C 14,8 C 14,8 C 2,0 C 71 % 73 % 53 % 1009,9 hPa 0,0 l/m 0,5 km/h (0 Bft) O-NO 67 0 min 0,0 UV-I 7,7 C 14,8 C 0,0 km/h (0 Bft)
04.11.2011 15:12 12,8 C 13,4 C 12,9 C 14,9 C 14,9 C 2,1 C 71 % 74 % 55 % 1009,9 hPa 0,0 l/m 1,6 km/h (1 Bft) N 0 0 min 0,0 UV-I 7,7 C 14,9 C 2,3 km/h (1 Bft)
04.11.2011 15:20 12,7 C 13,4 C 12,8 C 14,9 C 14,9 C 2,2 C 71 % 75 % 58 % 1010,4 hPa 0,0 l/m 0,5 km/h (0 Bft) SW 225 0 min 0,0 UV-I 7,6 C 14,9 C 1,9 km/h (1 Bft)
04.11.2011 15:25 12,7 C 13,4 C 12,7 C 15,5 C 15,5 C 2,8 C 71 % 75 % 74 % 1010,4 hPa 0,0 l/m 0,0 km/h (0 Bft) S-SW 202 0 min 0,0 UV-I 7,6 C 15,5 C 0,0 km/h (0 Bft)
04.11.2011 15:30 12,7 C 13,4 C 12,7 C 16,2 C 16,2 C 3,5 C 71 % 74 % 92 % 1010,4 hPa 0,0 l/m 0,5 km/h (0 Bft) O 90 5 min 0,0 UV-I 7,6 C 16,2 C 0,0 km/h (0 Bft)
04.11.2011 15:35 12,7 C 13,4 C 12,7 C 16,4 C 16,4 C 3,7 C 71 % 74 % 97 % 1010,4 hPa 0,0 l/m 0,5 km/h (0 Bft) O-NO 67 5 min 0,0 UV-I 7,6 C 16,4 C 2,3 km/h (1 Bft)
04.11.2011 15:40 12,6 C 13,4 C 12,6 C 16,4 C 16,4 C 3,8 C 72 % 75 % 100 % 1009,9 hPa 0,0 l/m 0,5 km/h (0 Bft) O-NO 67 5 min 0,0 UV-I 7,7 C 16,4 C 0,0 km/h (0 Bft)
04.11.2011 15:45 12,7 C 13,4 C 12,4 C 16,5 C 16,5 C 3,8 C 72 % 75 % 100 % 1009,9 hPa 0,0 l/m 0,2 km/h (0 Bft) W-SW 247 5 min 0,0 UV-I 7,8 C 16,5 C 0,0 km/h (0 Bft)
04.11.2011 15:50 12,9 C 13,4 C 12,2 C 16,0 C 16,0 C 3,1 C 72 % 76 % 82 % 1009,9 hPa 0,0 l/m 0,0 km/h (0 Bft) SW 225 5 min 0,0 UV-I 8,0 C 16,0 C 0,0 km/h (0 Bft)
04.11.2011 15:55 12,9 C 13,4 C 12,0 C 15,1 C 15,1 C 2,2 C 71 % 77 % 58 % 1009,9 hPa 0,0 l/m 0,0 km/h (0 Bft) SW 225 5 min 0,0 UV-I 7,8 C 15,1 C 0,0 km/h (0 Bft)
04.11.2011 16:00 12,8 C 13,4 C 11,9 C 14,4 C 14,4 C 1,6 C 71 % 77 % 42 % 1010,5 hPa 0,0 l/m 0,0 km/h (0 Bft) SW 225 5 min 0,0 UV-I 7,7 C 14,4 C 0,0 km/h (0 Bft)
04.11.2011 16:09 12,4 C 13,5 C 11,4 C 12,9 C 12,9 C 0,5 C 72 % 78 % 13 % 1010,5 hPa 0,0 l/m 0,0 km/h (0 Bft) N 0 0 min 0,0 UV-I 7,5 C 12,9 C 0,0 km/h (0 Bft)
04.11.2011 16:15 12,3 C 13,5 C 11,2 C 12,3 C 12,2 C 0,0 C 73 % 79 % 0 % 1010,5 hPa 0,0 l/m 0,0 km/h (0 Bft) W-SW 247 0 min 0,0 UV-I 7,6 C 12,2 C 0,0 km/h (0 Bft)
04.11.2011 16:20 12,1 C 13,5 C 11,1 C 12,0 C 11,9 C 0,0 C 73 % 79 % 0 % 1010,7 hPa 0,0 l/m 0,0 km/h (0 Bft) W-SW 247 0 min 0,0 UV-I 7,4 C 11,9 C 0,0 km/h (0 Bft)
04.11.2011 16:25 11,7 C 13,5 C 10,9 C 11,6 C 11,5 C 0,0 C 74 % 79 % 0 % 1010,7 hPa 0,0 l/m 0,0 km/h (0 Bft) O-NO 67 0 min 0,0 UV-I 7,2 C 11,5 C 0,0 km/h (0 Bft)
04.11.2011 16:30 11,5 C 13,5 C 10,8 C 11,4 C 11,2 C 0,0 C 74 % 79 % 0 % 1010,7 hPa 0,0 l/m 0,0 km/h (0 Bft) O-NO 67 0 min 0,0 UV-I 7,0 C 11,2 C 0,0 km/h (0 Bft)
04.11.2011 16:35 11,1 C 13,5 C 10,7 C 10,9 C 10,6 C 0,0 C 76 % 79 % 0 % 1010,7 hPa 0,0 l/m 1,0 km/h (0 Bft) O-NO 67 0 min 0,0 UV-I 7,0 C 10,6 C 3,7 km/h (1 Bft)
04.11.2011 16:40 10,8 C 13,6 C 10,4 C 10,6 C 10,3 C 0,0 C 77 % 81 % 0 % 1009,6 hPa 0,0 l/m 1,9 km/h (1 Bft) O 90 0 min 0,0 UV-I 6,9 C 10,3 C 3,2 km/h (1 Bft)
04.11.2011 16:45 10,7 C 13,6 C 10,5 C 10,5 C 10,1 C 0,0 C 78 % 81 % 0 % 1009,6 hPa 0,0 l/m 2,9 km/h (1 Bft) SO 135 0 min 0,0 UV-I 7,0 C 10,1 C 3,4 km/h (1 Bft)
04.11.2011 16:50 10,7 C 13,6 C 10,5 C 10,4 C 9,9 C 0,0 C 78 % 81 % 0 % 1009,6 hPa 0,0 l/m 2,9 km/h (1 Bft) O 90 0 min 0,0 UV-I 7,0 C 9,9 C 3,1 km/h (1 Bft)
04.11.2011 16:55 10,4 C 13,6 C 10,2 C 10,2 C 9,8 C 0,0 C 78 % 81 % 0 % 1009,6 hPa 0,0 l/m 3,4 km/h (1 Bft) O-NO 67 0 min 0,0 UV-I 6,7 C 9,8 C 3,7 km/h (1 Bft)
04.11.2011 17:00 10,3 C 13,6 C 10,0 C 10,1 C 9,6 C 0,0 C 78 % 81 % 0 % 1009,6 hPa 0,0 l/m 4,2 km/h (1 Bft) O-NO 67 0 min 0,0 UV-I 6,6 C 9,6 C 7,9 km/h (2 Bft)
04.11.2011 17:04 10,1 C 13,6 C 9,7 C 9,8 C 9,2 C 0,0 C 78 % 81 % 0 % 1009,6 hPa 0,0 l/m 4,5 km/h (1 Bft) O-NO 67 0 min 0,0 UV-I 6,4 C 9,2 C 3,5 km/h (1 Bft)
04.11.2011 17:09 10,0 C 13,6 C 9,6 C 9,7 C 9,0 C 0,0 C 78 % 81 % 0 % 1009,6 hPa 0,0 l/m 4,7 km/h (1 Bft) NO 45 0 min 0,0 UV-I 6,3 C 8,7 C 4,2 km/h (1 Bft)
04.11.2011 17:14 9,7 C 13,7 C 9,5 C 9,5 C 9,1 C 0,0 C 78 % 82 % 0 % 1009,6 hPa 0,0 l/m 3,7 km/h (1 Bft) O-SO 112 0 min 0,0 UV-I 6,1 C 9,1 C 2,4 km/h (1 Bft)
04.11.2011 17:18 9,7 C 13,7 C 9,5 C 9,5 C 9,1 C 0,0 C 78 % 82 % 0 % 1009,6 hPa 0,0 l/m 3,7 km/h (1 Bft) O-SO 112 0 min 0,0 UV-I 6,1 C 9,1 C 2,4 km/h (1 Bft)
04.11.2011 17:25 9,4 C 13,7 C 9,1 C 9,1 C 8,6 C 0,0 C 79 % 82 % 0 % 1009,9 hPa 0,0 l/m 2,6 km/h (1 Bft) O-NO 67 0 min 0,0 UV-I 5,9 C 8,6 C 1,8 km/h (1 Bft)
04.11.2011 17:30 9,2 C 13,6 C 9,1 C 8,9 C 8,4 C 0,0 C 79 % 82 % 0 % 1009,9 hPa 0,0 l/m 1,6 km/h (1 Bft) O-SO 112 0 min 0,0 UV-I 5,8 C 8,4 C 0,0 km/h (0 Bft)
04.11.2011 17:35 9,1 C 13,7 C 8,7 C 8,7 C 7,8 C 0,0 C 80 % 82 % 0 % 1009,9 hPa 0,0 l/m 0,2 km/h (0 Bft) W-SW 247 0 min 0,0 UV-I 5,8 C 7,8 C 0,0 km/h (0 Bft)
04.11.2011 17:40 8,9 C 13,7 C 8,4 C 8,5 C 7,6 C 0,0 C 79 % 82 % 0 % 1010,6 hPa 0,0 l/m 0,0 km/h (0 Bft) W-SW 247 0 min 0,0 UV-I 5,5 C 7,6 C 0,0 km/h (0 Bft)
04.11.2011 17:45 8,7 C 13,7 C 8,2 C 8,2 C 7,1 C 0,0 C 80 % 83 % 0 % 1010,6 hPa 0,0 l/m 0,0 km/h (0 Bft) NO 45 0 min 0,0 UV-I 5,4 C 7,1 C 0,0 km/h (0 Bft)
04.11.2011 17:50 8,4 C 13,7 C 8,1 C 7,9 C 7,0 C 0,0 C 80 % 83 % 0 % 1010,6 hPa 0,0 l/m 0,0 km/h (0 Bft) NO 45 0 min 0,0 UV-I 5,2 C 7,0 C 0,0 km/h (0 Bft)
04.11.2011 17:55 8,1 C 13,7 C 7,8 C 7,7 C 6,8 C 0,0 C 81 % 84 % 0 % 1010,6 hPa 0,0 l/m 0,0 km/h (0 Bft) NO 45 0 min 0,0 UV-I 5,0 C 6,8 C 0,0 km/h (0 Bft)
04.11.2011 18:00 8,1 C 13,7 C 7,9 C 7,6 C 6,7 C 0,0 C 81 % 84 % 0 % 1010,5 hPa 0,0 l/m 0,0 km/h (0 Bft) O-NO 67 0 min 0,0 UV-I 5,0 C 6,7 C 0,0 km/h (0 Bft)
04.11.2011 18:12 7,6 C 13,8 C 7,5 C 7,2 C 6,3 C 0,0 C 82 % 84 % 0 % 1010,5 hPa 0,0 l/m 0,0 km/h (0 Bft) N 0 0 min 0,0 UV-I 4,7 C 6,3 C 0,0 km/h (0 Bft)
04.11.2011 18:20 7,2 C 13,8 C 7,3 C 6,8 C 6,0 C 0,0 C 83 % 85 % 0 % 1010,6 hPa 0,0 l/m 0,0 km/h (0 Bft) O-NO 67 0 min 0,0 UV-I 4,5 C 6,0 C 0,0 km/h (0 Bft)
04.11.2011 18:25 7,0 C 13,8 C 7,2 C 6,6 C 5,8 C 0,0 C 83 % 86 % 0 % 1010,6 hPa 0,0 l/m 0,0 km/h (0 Bft) NO 45 0 min 0,0 UV-I 4,3 C 5,8 C 0,0 km/h (0 Bft)
04.11.2011 18:30 6,9 C 13,8 C 7,1 C 6,5 C 5,8 C 0,0 C 83 % 85 % 0 % 1010,6 hPa 0,0 l/m 0,2 km/h (0 Bft) O-NO 67 0 min 0,0 UV-I 4,2 C 5,8 C 1,8 km/h (1 Bft)
04.11.2011 18:35 6,8 C 13,8 C 6,9 C 6,5 C 5,8 C 0,0 C 84 % 85 % 0 % 1010,6 hPa 0,0 l/m 0,2 km/h (0 Bft) NO 45 0 min 0,0 UV-I 4,3 C 5,8 C 0,0 km/h (0 Bft)
04.11.2011 18:40 6,8 C 13,8 C 6,9 C 6,5 C 5,9 C 0,0 C 84 % 86 % 0 % 1010,6 hPa 0,0 l/m 0,5 km/h (0 Bft) O-NO 67 0 min 0,0 UV-I 4,3 C 5,9 C 0,0 km/h (0 Bft)
04.11.2011 18:45 6,8 C 13,8 C 6,8 C 6,5 C 5,8 C 0,0 C 85 % 86 % 0 % 1010,6 hPa 0,0 l/m 0,3 km/h (0 Bft) N-NO 22 0 min 0,0 UV-I 4,5 C 5,8 C 0,0 km/h (0 Bft)
04.11.2011 18:50 6,7 C 13,9 C 6,8 C 6,4 C 5,8 C 0,0 C 85 % 86 % 0 % 1010,6 hPa 0,0 l/m 0,0 km/h (0 Bft) O 90 0 min 0,0 UV-I 4,4 C 5,8 C 0,0 km/h (0 Bft)
04.11.2011 18:55 6,7 C 13,8 C 6,6 C 6,3 C 5,5 C 0,0 C 85 % 86 % 0 % 1010,6 hPa 0,0 l/m 0,0 km/h (0 Bft) NW 315 0 min 0,0 UV-I 4,4 C 5,5 C 0,0 km/h (0 Bft)
04.11.2011 19:00 6,5 C 13,8 C 6,7 C 6,2 C 5,5 C 0,0 C 85 % 86 % 0 % 1010,6 hPa 0,0 l/m 0,0 km/h (0 Bft) N-NW 337 0 min 0,0 UV-I 4,2 C 5,5 C 0,0 km/h (0 Bft)
04.11.2011 19:09 6,2 C 13,9 C 6,4 C 5,9 C 5,2 C 0,0 C 85 % 87 % 0 % 1010,6 hPa 0,0 l/m 0,2 km/h (0 Bft) N 0 0 min 0,0 UV-I 3,9 C 5,2 C 0,0 km/h (0 Bft)
04.11.2011 19:15 6,0 C 13,9 C 6,3 C 5,7 C 5,0 C 0,0 C 85 % 87 % 0 % 1010,6 hPa 0,0 l/m 0,0 km/h (0 Bft) W-SW 247 0 min 0,0 UV-I 3,7 C 5,0 C 0,0 km/h (0 Bft)
04.11.2011 19:20 5,9 C 13,9 C 6,1 C 5,5 C 4,8 C 0,0 C 85 % 87 % 0 % 1010,3 hPa 0,0 l/m 0,0 km/h (0 Bft) O-NO 67 0 min 0,0 UV-I 3,6 C 4,8 C 0,0 km/h (0 Bft)
04.11.2011 19:25 5,9 C 14,0 C 5,9 C 5,5 C 4,8 C 0,0 C 86 % 87 % 0 % 1010,3 hPa 0,0 l/m 0,0 km/h (0 Bft) O-NO 67 0 min 0,0 UV-I 3,7 C 4,8 C 1,6 km/h (1 Bft)
04.11.2011 19:30 5,7 C 14,0 C 5,9 C 5,5 C 5,0 C 0,0 C 86 % 87 % 0 % 1010,3 hPa 0,0 l/m 0,3 km/h (0 Bft) O-NO 67 0 min 0,0 UV-I 3,5 C 5,0 C 1,8 km/h (1 Bft)
04.11.2011 19:34 5,7 C 13,9 C 5,9 C 5,5 C 5,1 C 0,0 C 87 % 87 % 0 % 1010,3 hPa 0,0 l/m 0,3 km/h (0 Bft) NO 45 0 min 0,0 UV-I 3,7 C 5,1 C 0,0 km/h (0 Bft)
04.11.2011 19:39 5,7 C 13,9 C 5,8 C 5,5 C 5,0 C 0,0 C 87 % 87 % 0 % 1010,9 hPa 0,0 l/m 0,2 km/h (0 Bft) NO 45 0 min 0,0 UV-I 3,7 C 5,0 C 0,0 km/h (0 Bft)
04.11.2011 19:44 5,6 C 13,9 C 5,9 C 5,3 C 4,7 C 0,0 C 87 % 88 % 0 % 1010,9 hPa 0,0 l/m 0,0 km/h (0 Bft) SO 135 0 min 0,0 UV-I 3,6 C 4,7 C 0,0 km/h (0 Bft)
04.11.2011 19:49 5,6 C 13,9 C 5,7 C 5,3 C 4,7 C 0,0 C 87 % 88 % 0 % 1010,9 hPa 0,0 l/m 0,0 km/h (0 Bft) SO 135 0 min 0,0 UV-I 3,6 C 4,7 C 0,0 km/h (0 Bft)
04.11.2011 19:54 5,5 C 14,0 C 5,7 C 5,2 C 4,7 C 0,0 C 87 % 88 % 0 % 1010,9 hPa 0,0 l/m 0,0 km/h (0 Bft) SO 135 0 min 0,0 UV-I 3,5 C 4,7 C 0,0 km/h (0 Bft)
04.11.2011 19:59 5,5 C 13,9 C 5,6 C 5,2 C 4,6 C 0,0 C 87 % 88 % 0 % 1011,0 hPa 0,0 l/m 0,0 km/h (0 Bft) SO 135 0 min 0,0 UV-I 3,5 C 4,6 C 0,0 km/h (0 Bft)
04.11.2011 20:04 5,3 C 13,9 C 5,6 C 5,0 C 4,4 C 0,0 C 87 % 88 % 0 % 1011,0 hPa 0,0 l/m 0,0 km/h (0 Bft) N-NW 337 0 min 0,0 UV-I 3,3 C 4,4 C 0,0 km/h (0 Bft)
04.11.2011 20:09 5,3 C 13,9 C 5,6 C 5,0 C 4,4 C 0,0 C 87 % 88 % 0 % 1011,0 hPa 0,0 l/m 0,0 km/h (0 Bft) N-NW 337 0 min 0,0 UV-I 3,3 C 4,4 C 0,0 km/h (0 Bft)
04.11.2011 20:14 5,3 C 13,9 C 5,5 C 5,0 C 4,4 C 0,0 C 88 % 88 % 0 % 1011,0 hPa 0,0 l/m 0,0 km/h (0 Bft) NO 45 0 min 0,0 UV-I 3,5 C 4,4 C 0,0 km/h (0 Bft)
04.11.2011 20:19 5,2 C 13,9 C 5,5 C 4,9 C 4,3 C 0,0 C 88 % 88 % 0 % 1010,9 hPa 0,0 l/m 0,0 km/h (0 Bft) O-NO 67 0 min 0,0 UV-I 3,4 C 4,3 C 0,0 km/h (0 Bft)
04.11.2011 20:24 5,2 C 13,9 C 5,5 C 4,9 C 4,3 C 0,0 C 88 % 88 % 0 % 1010,9 hPa 0,0 l/m 0,0 km/h (0 Bft) NO 45 0 min 0,0 UV-I 3,4 C 4,3 C 0,0 km/h (0 Bft)
04.11.2011 20:29 5,2 C 13,8 C 5,4 C 4,9 C 4,2 C 0,0 C 88 % 89 % 0 % 1010,9 hPa 0,0 l/m 0,2 km/h (0 Bft) W 270 0 min 0,0 UV-I 3,4 C 4,2 C 0,0 km/h (0 Bft)
04.11.2011 20:34 5,2 C 13,8 C 5,5 C 4,9 C 4,3 C 0,0 C 88 % 89 % 0 % 1010,9 hPa 0,0 l/m 0,3 km/h (0 Bft) N-NW 337 0 min 0,0 UV-I 3,4 C 4,3 C 0,0 km/h (0 Bft)
04.11.2011 20:39 5,2 C 13,9 C 5,4 C 4,9 C 4,2 C 0,0 C 88 % 89 % 0 % 1011,0 hPa 0,0 l/m 0,2 km/h (0 Bft) N-NW 337 0 min 0,0 UV-I 3,4 C 4,2 C 0,0 km/h (0 Bft)
04.11.2011 20:44 5,1 C 13,9 C 5,3 C 4,8 C 4,2 C 0,0 C 88 % 88 % 0 % 1011,0 hPa 0,0 l/m 0,0 km/h (0 Bft) N-NW 337 0 min 0,0 UV-I 3,3 C 4,2 C 0,0 km/h (0 Bft)
04.11.2011 20:49 5,1 C 13,9 C 5,3 C 4,8 C 4,2 C 0,0 C 88 % 88 % 0 % 1011,0 hPa 0,0 l/m 0,0 km/h (0 Bft) N-NW 337 0 min 0,0 UV-I 3,3 C 4,2 C 0,0 km/h (0 Bft)
04.11.2011 20:54 4,9 C 13,8 C 5,2 C 4,6 C 4,1 C 0,0 C 88 % 88 % 0 % 1011,0 hPa 0,0 l/m 0,0 km/h (0 Bft) N-NW 337 0 min 0,0 UV-I 3,1 C 4,1 C 0,0 km/h (0 Bft)
04.11.2011 20:59 4,8 C 13,9 C 5,1 C 4,5 C 4,0 C 0,0 C 88 % 89 % 0 % 1011,0 hPa 0,0 l/m 0,0 km/h (0 Bft) O-NO 67 0 min 0,0 UV-I 3,0 C 4,0 C 0,0 km/h (0 Bft)
04.11.2011 21:04 4,8 C 13,9 C 5,0 C 4,5 C 4,0 C 0,0 C 88 % 89 % 0 % 1011,0 hPa 0,0 l/m 0,0 km/h (0 Bft) NO 45 0 min 0,0 UV-I 3,0 C 4,0 C 0,0 km/h (0 Bft)
04.11.2011 21:09 4,7 C 13,8 C 5,1 C 4,5 C 4,0 C 0,0 C 88 % 89 % 0 % 1011,0 hPa 0,0 l/m 0,0 km/h (0 Bft) NO 45 0 min 0,0 UV-I 2,9 C 4,0 C 0,0 km/h (0 Bft)
04.11.2011 21:14 4,8 C 13,8 C 5,1 C 4,5 C 4,0 C 0,0 C 88 % 89 % 0 % 1011,0 hPa 0,0 l/m 0,0 km/h (0 Bft) N-NO 22 0 min 0,0 UV-I 3,0 C 4,0 C 0,0 km/h (0 Bft)
04.11.2011 21:19 4,8 C 13,8 C 5,1 C 4,5 C 4,0 C 0,0 C 88 % 89 % 0 % 1011,1 hPa 0,0 l/m 0,0 km/h (0 Bft) N-NW 337 0 min 0,0 UV-I 3,0 C 4,0 C 0,0 km/h (0 Bft)
04.11.2011 21:24 4,9 C 13,8 C 5,1 C 4,6 C 4,0 C 0,0 C 89 % 89 % 0 % 1011,1 hPa 0,0 l/m 0,0 km/h (0 Bft) NW 315 0 min 0,0 UV-I 3,2 C 4,0 C 0,0 km/h (0 Bft)
04.11.2011 21:29 5,0 C 13,8 C 5,1 C 4,7 C 4,1 C 0,0 C 89 % 89 % 0 % 1011,1 hPa 0,0 l/m 0,0 km/h (0 Bft) N-NO 22 0 min 0,0 UV-I 3,3 C 4,1 C 0,0 km/h (0 Bft)
04.11.2011 21:34 4,9 C 13,8 C 5,0 C 4,6 C 4,0 C 0,0 C 88 % 89 % 0 % 1011,1 hPa 0,0 l/m 0,0 km/h (0 Bft) O 90 0 min 0,0 UV-I 3,1 C 4,0 C 0,0 km/h (0 Bft)
04.11.2011 21:39 4,8 C 13,8 C 4,9 C 4,5 C 4,0 C 0,0 C 88 % 89 % 0 % 1011,1 hPa 0,0 l/m 0,0 km/h (0 Bft) O-NO 67 0 min 0,0 UV-I 3,0 C 4,0 C 0,0 km/h (0 Bft)
04.11.2011 21:44 4,8 C 13,8 C 4,8 C 4,5 C 3,9 C 0,0 C 88 % 89 % 0 % 1011,1 hPa 0,0 l/m 0,0 km/h (0 Bft) O-NO 67 0 min 0,0 UV-I 3,0 C 3,9 C 0,0 km/h (0 Bft)
04.11.2011 21:49 4,7 C 13,9 C 4,7 C 4,4 C 3,8 C 0,0 C 88 % 88 % 0 % 1011,1 hPa 0,0 l/m 0,2 km/h (0 Bft) O-NO 67 0 min 0,0 UV-I 2,9 C 3,8 C 0,0 km/h (0 Bft)
04.11.2011 21:54 4,5 C 13,8 C 4,5 C 4,3 C 3,8 C 0,0 C 88 % 88 % 0 % 1011,1 hPa 0,0 l/m 0,2 km/h (0 Bft) NO 45 0 min 0,0 UV-I 2,7 C 3,8 C 0,0 km/h (0 Bft)
04.11.2011 21:59 4,5 C 13,8 C 4,6 C 4,2 C 3,7 C 0,0 C 88 % 89 % 0 % 1010,9 hPa 0,0 l/m 0,0 km/h (0 Bft) N-NW 337 0 min 0,0 UV-I 2,7 C 3,7 C 0,0 km/h (0 Bft)
04.11.2011 22:04 4,5 C 13,8 C 4,7 C 4,2 C 3,7 C 0,0 C 88 % 89 % 0 % 1010,9 hPa 0,0 l/m 0,0 km/h (0 Bft) NW 315 0 min 0,0 UV-I 2,7 C 3,7 C 0,0 km/h (0 Bft)
04.11.2011 22:09 4,5 C 13,8 C 4,7 C 4,2 C 3,7 C 0,0 C 88 % 89 % 0 % 1010,9 hPa 0,0 l/m 0,0 km/h (0 Bft) N-NW 337 0 min 0,0 UV-I 2,7 C 3,7 C 0,0 km/h (0 Bft)
04.11.2011 22:14 4,5 C 13,8 C 4,6 C 4,2 C 3,6 C 0,0 C 88 % 89 % 0 % 1010,9 hPa 0,0 l/m 0,0 km/h (0 Bft) NW 315 0 min 0,0 UV-I 2,7 C 3,6 C 0,0 km/h (0 Bft)
04.11.2011 22:19 4,4 C 13,8 C 4,6 C 4,2 C 3,7 C 0,0 C 89 % 89 % 0 % 1011,1 hPa 0,0 l/m 0,2 km/h (0 Bft) O-NO 67 0 min 0,0 UV-I 2,7 C 3,7 C 0,0 km/h (0 Bft)
04.11.2011 22:24 4,4 C 13,8 C 4,5 C 4,2 C 3,7 C 0,0 C 89 % 89 % 0 % 1011,1 hPa 0,0 l/m 0,2 km/h (0 Bft) N 360 0 min 0,0 UV-I 2,7 C 3,7 C 0,0 km/h (0 Bft)
04.11.2011 22:29 4,4 C 13,8 C 4,5 C 4,1 C 3,6 C 0,0 C 89 % 89 % 0 % 1011,1 hPa 0,0 l/m 0,0 km/h (0 Bft) N 360 0 min 0,0 UV-I 2,7 C 3,6 C 0,0 km/h (0 Bft)
04.11.2011 22:34 4,3 C 13,8 C 4,5 C 4,1 C 3,6 C 0,0 C 89 % 89 % 0 % 1011,1 hPa 0,0 l/m 0,0 km/h (0 Bft) N-NO 22 0 min 0,0 UV-I 2,7 C 3,6 C 0,0 km/h (0 Bft)
04.11.2011 22:40 4,3 C 13,8 C 4,4 C 4,1 C 3,6 C 0,0 C 89 % 89 % 0 % 1010,7 hPa 0,0 l/m 0,0 km/h (0 Bft) N-NW 337 0 min 0,0 UV-I 2,7 C 3,6 C 0,0 km/h (0 Bft)
04.11.2011 22:45 4,1 C 13,8 C 4,4 C 3,8 C 3,3 C 0,0 C 89 % 90 % 0 % 1010,7 hPa 0,0 l/m 0,0 km/h (0 Bft) W-SW 247 0 min 0,0 UV-I 2,5 C 3,3 C 0,0 km/h (0 Bft)
04.11.2011 22:50 4,0 C 13,8 C 4,4 C 3,7 C 3,2 C 0,0 C 89 % 90 % 0 % 1010,7 hPa 0,0 l/m 0,0 km/h (0 Bft) W-SW 247 0 min 0,0 UV-I 2,4 C 3,2 C 0,0 km/h (0 Bft)
04.11.2011 22:55 3,9 C 13,8 C 4,3 C 3,6 C 3,1 C 0,0 C 89 % 89 % 0 % 1010,7 hPa 0,0 l/m 0,0 km/h (0 Bft) S-SO 157 0 min 0,0 UV-I 2,3 C 3,1 C 0,0 km/h (0 Bft)
04.11.2011 23:00 3,9 C 13,8 C 4,2 C 3,7 C 3,2 C 0,0 C 89 % 89 % 0 % 1010,6 hPa 0,0 l/m 0,2 km/h (0 Bft) N 360 0 min 0,0 UV-I 2,3 C 3,2 C 2,3 km/h (1 Bft)
04.11.2011 23:11 4,0 C 13,8 C 4,3 C 3,8 C 3,3 C 0,0 C 89 % 90 % 0 % 1010,6 hPa 0,0 l/m 0,2 km/h (0 Bft) N 0 0 min 0,0 UV-I 2,4 C 3,3 C 0,0 km/h (0 Bft)
04.11.2011 23:20 3,9 C 13,9 C 4,3 C 3,6 C 3,0 C 0,0 C 89 % 90 % 0 % 1010,6 hPa 0,0 l/m 0,0 km/h (0 Bft) W 270 0 min 0,0 UV-I 2,3 C 3,0 C 0,0 km/h (0 Bft)
04.11.2011 23:25 3,7 C 13,9 C 4,1 C 3,5 C 3,0 C 0,0 C 89 % 90 % 0 % 1010,6 hPa 0,0 l/m 0,0 km/h (0 Bft) NW 315 0 min 0,0 UV-I 2,1 C 3,0 C 0,0 km/h (0 Bft)
04.11.2011 23:30 3,7 C 13,9 C 4,1 C 3,5 C 3,0 C 0,0 C 90 % 90 % 0 % 1010,6 hPa 0,0 l/m 0,0 km/h (0 Bft) NW 315 0 min 0,0 UV-I 2,2 C 3,0 C 0,0 km/h (0 Bft)
04.11.2011 23:35 3,6 C 13,9 C 4,0 C 3,4 C 2,9 C 0,0 C 89 % 90 % 0 % 1010,6 hPa 0,0 l/m 0,0 km/h (0 Bft) SW 225 0 min 0,0 UV-I 2,0 C 2,9 C 0,0 km/h (0 Bft)
04.11.2011 23:40 3,4 C 13,9 C 3,9 C 3,2 C 2,7 C 0,0 C 89 % 90 % 0 % 1010,8 hPa 0,0 l/m 0,8 km/h (0 Bft) W-SW 247 0 min 0,0 UV-I 1,8 C 2,7 C 3,1 km/h (1 Bft)
04.11.2011 23:45 3,2 C 13,9 C 3,7 C 2,9 C 2,3 C 0,0 C 89 % 90 % 0 % 1010,8 hPa 0,0 l/m 0,8 km/h (0 Bft) W 270 0 min 0,0 UV-I 1,6 C 2,3 C 0,0 km/h (0 Bft)
04.11.2011 23:50 3,2 C 13,9 C 3,7 C 2,8 C 2,0 C 0,0 C 89 % 90 % 0 % 1010,8 hPa 0,0 l/m 0,2 km/h (0 Bft) W 270 0 min 0,0 UV-I 1,6 C 2,0 C 0,0 km/h (0 Bft)
04.11.2011 23:55 3,1 C 13,9 C 3,5 C 2,7 C 2,0 C 0,0 C 89 % 90 % 0 % 1010,8 hPa 0,0 l/m 0,2 km/h (0 Bft) O-SO 112 0 min 0,0 UV-I 1,5 C 2,0 C 2,3 km/h (1 Bft)
_ Min-Zeit 23:55 09:15 23:55 23:55 23:50 00:00 14:15 14:20 00:00 00:40 - 00:14 - - - 00:00 23:55 23:50 00:00
Minimum _ 3,1 C 13,0 C 3,5 C 2,7 C 2,0 C 0,0 C 71 % 69 % 0 % 1008,4 hPa - 0,0 km/h (0 Bft) - - - 0,0 UV-I 1,5 C 2,0 C 0,0 km/h (0 Bft)
_ Max-Zeit 14:50 19:25 14:15 15:45 15:45 14:00 23:30 22:45 14:00 21:19 00:00 10:35 - - 14:15 00:00 15:50 15:45 10:30
Maximum _ 12,9 C 14,0 C 14,8 C 16,5 C 16,5 C 3,8 C 90 % 90 % 100 % 1011,1 hPa 0,0 l/m 5,6 km/h
S-SW (1 Bft)
- - 15 min 0,0 UV-I 8,0 C 16,5 C 10,9 km/h
W-SW (2 Bft)
Durchschnitt _ 7,2 C 13,4 C 7,3 C 7,7 C 7,3 C 0,6 C 82 % 84 % 17 % 1009,8 hPa #0,0 l/m 0,7 km/h (0 Bft) W-SW - #1:05 h 0,0 UV-I 4,3 C 7,3 C 1,1 km/h (1 Bft)
2011 www.wetterstation-wechselburg.de